Weather History for Leesburg, FL

Change the Weather History Date:

Wednesday, March 6, 2013

  Actual Average Record
Temperature  
Mean Temperature 59 °F -  
Max Temperature 68 °F 75 °F 88 °F (1977)
Min Temperature 48 °F 53 °F 30 °F (1962)
Degree Days  
Heating Degree Days 6    
Growing Degree Days 9 (Base 50)    
Moisture  
Dew Point 39 °F    
Average Humidity 52    
Maximum Humidity 88    
Minimum Humidity 21    
Precipitation  
Precipitation 0.00 in - - ()
Sea Level Pressure  
Sea Level Pressure 30.05 in    
Wind  
Wind Speed 12 mph (WNW)    
Max Wind Speed 21 mph    
Max Gust Speed 32 mph    
Visibility 10 miles    
Events Rain    
Averages and records for this station are not official NWS values.
T = Trace of Precipitation, MM = Missing Value Source: NWS Daily Summary

Daily Weather History Graph

Daily Weather History Graph

Search for Another Location

Airport:

Trip Planner

Search our weather history database for the weather conditions in past years. The results will help you decide how hot, cold, wet, or windy it might be!

Date:

Astronomy

Mar. 06, 2013 Rise Set
Actual Time 6:46 AM EST 6:30 PM EST
Civil Twilight 6:23 AM EST 6:54 PM EST
Nautical Twilight 5:55 AM EST 7:21 PM EST
Astronomical Twilight 5:28 AM EST 7:48 PM EST
Moon 2:35 AM EST (3/6) 1:29 PM EST (3/6)
Length of Visible Light 12h 31m
Length of Day
11h 43m
Waning Crescent, 30% of the Moon is Illuminated
Mar 6
Waning Crescent
Mar 11
New
Mar 19
First Quarter
Mar 27
Full
Apr 3
Last Quarter

Hourly Weather History & Observations

Time (EST) Temp. Dew Point Humidity Pressure Visibility Wind Dir Wind Speed Gust Speed Precip Events Conditions
12:53 AM 62.1 °F 57.9 °F 86% 30.00 in 10.0 mi SSW 10.4 mph - N/A   Scattered Clouds
1:53 AM 63.0 °F 59.0 °F 87% 29.98 in 10.0 mi SW 12.7 mph - 0.00 in   Mostly Cloudy
2:53 AM 63.0 °F 59.0 °F 87% 29.95 in 10.0 mi SW 11.5 mph - N/A   Mostly Cloudy
3:53 AM 64.0 °F 60.1 °F 87% 29.94 in 10.0 mi WSW 10.4 mph - 0.00 in Rain Light Rain
4:34 AM 64.4 °F 60.8 °F 88% 29.96 in 10.0 mi WNW 11.5 mph - 0.00 in   Overcast
4:53 AM 64.0 °F 57.0 °F 78% 29.97 in 10.0 mi WNW 10.4 mph 23.0 mph 0.00 in   Overcast
5:53 AM 59.0 °F 46.9 °F 64% 30.02 in 10.0 mi NW 15.0 mph 26.5 mph N/A   Mostly Cloudy
6:53 AM 52.0 °F 32.0 °F 47% 30.07 in 10.0 mi NNW 20.7 mph 32.2 mph N/A   Mostly Cloudy
7:53 AM 50.0 °F 33.1 °F 52% 30.11 in 10.0 mi NW 9.2 mph 17.3 mph N/A   Clear
8:53 AM 51.1 °F 30.9 °F 46% 30.12 in 10.0 mi NW 11.5 mph 23.0 mph N/A   Clear
9:53 AM 55.0 °F 30.0 °F 38% 30.12 in 10.0 mi WNW 11.5 mph 19.6 mph N/A   Clear
10:53 AM 59.0 °F 28.0 °F 31% 30.09 in 10.0 mi WNW 15.0 mph 21.9 mph N/A   Clear
11:53 AM 62.1 °F 28.0 °F 28% 30.06 in 10.0 mi WNW 15.0 mph 23.0 mph N/A   Clear
12:53 PM 64.0 °F 28.9 °F 27% 30.03 in 10.0 mi WNW 11.5 mph 17.3 mph N/A   Clear
1:53 PM 66.9 °F 30.0 °F 25% 30.00 in 10.0 mi NW 12.7 mph 20.7 mph N/A   Clear
2:53 PM 68.0 °F 26.1 °F 21% 29.99 in 10.0 mi WNW 17.3 mph 21.9 mph N/A   Clear
3:53 PM 66.0 °F 35.1 °F 32% 29.99 in 10.0 mi West 12.7 mph - N/A   Clear
4:53 PM 62.1 °F 36.0 °F 38% 30.00 in 10.0 mi West 16.1 mph 24.2 mph N/A   Clear
5:53 PM 57.9 °F 36.0 °F 44% 30.02 in 10.0 mi West 16.1 mph 23.0 mph N/A   Clear
6:53 PM 55.0 °F 35.1 °F 47% 30.06 in 10.0 mi West 11.5 mph - N/A   Clear
7:53 PM 54.0 °F 35.1 °F 49% 30.09 in 10.0 mi WNW 12.7 mph - N/A   Clear
8:53 PM 52.0 °F 34.0 °F 50% 30.12 in 10.0 mi WNW 10.4 mph 17.3 mph N/A   Clear
9:53 PM 51.1 °F 34.0 °F 52% 30.14 in 10.0 mi WNW 5.8 mph - N/A   Clear
10:53 PM 50.0 °F 33.1 °F 52% 30.17 in 10.0 mi NNW 6.9 mph - N/A   Clear
11:53 PM 48.9 °F 32.0 °F 52% 30.17 in 10.0 mi NNW 6.9 mph - N/A   Clear